Flag for Vatican City State Weather past 2 weeks in Vatican City, Vatican City State

Now
39 °F

Passing clouds.


Feels Like: 39 °F
Forecast: 49 / 61 °F
Wind: 2 mph from Northeast

Location: Rome / Ciampino

Current Time: Mar 1, 2015 at 8:03:43 AM

Latest Report: Mar 1, 2015 at 7:15 AM


Visibility: 5 mi

Pressure: 30.07 "Hg

Humidity: 93%

Dew point: 37 °F

Location of Vatican CityLocation

Historic Weather in Vatican City — Graph

°F

Vatican City temperature yesterday

Maximum temperature yesterday: 59 °F (at 1:45 PM)
Minimum temperature yesterday: 39 °F (at 6:15 AM)
Average temperature yesterday: 48 °F

Past Weeks' High & Low Weather Summary

 TemperatureHumidityPressure
High63 °F (Feb 17, 2:15 PM)100% (Feb 20, 4:15 AM)30.48 "Hg (Feb 20, 4:15 AM)
Low34 °F (Feb 20, 5:45 AM)34% (Feb 17, 4:45 PM)29.33 "Hg (Feb 22, 1:45 PM)
Average49 °F74%29.89 "Hg
* Reported Feb 14 6:15 AM — Mar 1 6:45 AM, Vatican City, Weather by CustomWeather, © 2015

Note: Actual official high and low records may vary slightly from our data, if they occured in-between our weather recording intervals... More about our weather records

Advertising

Vatican City weather history for previous 24 hours

 ConditionsComfort  
Time TempWeatherWind HumidityBarometerVisibility
6:45 AM
Sun, Mar 1
37 °FPassing clouds.1 mph100%30.07 "Hg5 mi
6:15 AM39 °FClear.No wind87%30.04 "Hg10 mi
5:45 AM39 °FClear.No wind93%30.04 "Hg10 mi
5:15 AM39 °FClear.No wind87%30.04 "Hg10 mi
4:45 AM39 °FClear.No wind93%30.04 "Hg10 mi
4:15 AM39 °FClear.No wind93%30.04 "Hg10 mi
3:45 AM41 °FClear.No wind81%30.04 "Hg10 mi
3:15 AM41 °FClear.No wind87%30.04 "Hg10 mi
2:45 AM41 °FClear.2 mph87%30.04 "Hg10 mi
2:15 AM41 °FClear.No wind93%30.04 "Hg10 mi
1:45 AM41 °FClear.No wind93%30.04 "Hg10 mi
1:15 AM41 °FPassing clouds.2 mph93%30.04 "HgN/A
12:15 AM43 °FPassing clouds.2 mph93%30.04 "HgN/A
11:45 PM
Sat, Feb 28
45 °FPassing clouds.2 mph93%30.04 "HgN/A
11:15 PM45 °FPassing clouds.3 mph93%30.04 "HgN/A
10:45 PM45 °FPassing clouds.3 mph93%30.04 "HgN/A
10:15 PM46 °FPassing clouds.No wind87%30.04 "HgN/A
9:45 PM46 °FPassing clouds.3 mph87%30.04 "HgN/A
9:15 PM48 °FPassing clouds.2 mph82%30.01 "HgN/A
8:45 PM46 °FPassing clouds.5 mph87%30.01 "HgN/A
8:15 PM46 °FPassing clouds.No wind87%30.01 "HgN/A
7:45 PM46 °FPassing clouds.5 mph93%30.01 "HgN/A
7:15 PM48 °FPassing clouds.2 mph87%29.98 "HgN/A
6:45 PM50 °FPassing clouds.3 mph82%29.98 "HgN/A
6:15 PM50 °FPassing clouds.2 mph76%29.98 "HgN/A
5:45 PM52 °FPassing clouds.35 mph72%29.98 "HgN/A
5:15 PM55 °FPassing clouds.7 mph59%29.95 "HgN/A
4:45 PM57 °FScattered clouds.6 mph55%29.95 "HgN/A
4:15 PM57 °FScattered clouds.7 mph55%29.95 "HgN/A
3:45 PM55 °FScattered clouds.7 mph59%29.95 "HgN/A
3:15 PM54 °FScattered clouds.8 mph67%29.95 "HgN/A
2:45 PM59 °FScattered clouds.6 mph48%29.95 "HgN/A
2:15 PM57 °FScattered clouds.1 mph44%29.95 "HgN/A
1:45 PM59 °FScattered clouds.8 mph48%29.98 "HgN/A
1:15 PM57 °FScattered clouds.5 mph51%29.98 "HgN/A
12:45 PM55 °FScattered clouds.5 mph59%29.98 "HgN/A
12:15 PM57 °FScattered clouds.2 mph59%29.98 "HgN/A
11:45 AM55 °FScattered clouds.2 mph63%29.98 "HgN/A
11:15 AM57 °FScattered clouds.3 mph63%29.98 "HgN/A
10:45 AM54 °FScattered clouds.2 mph67%29.98 "HgN/A
10:15 AM52 °FScattered clouds.2 mph72%29.98 "HgN/A
9:45 AM48 °FScattered clouds.2 mph76%29.95 "HgN/A
9:15 AM46 °FPassing clouds.2 mph82%29.95 "HgN/A
8:45 AM46 °FPassing clouds.2 mph82%29.95 "Hg5 mi
8:15 AM43 °FPassing clouds.7 mph93%29.95 "Hg5 mi
Weather by CustomWeather, © 2015

See weather overviewHow to use our weather pages